Content
SEND FEEDBACK

Daily
Averages
Monthly
Summary
French Polynesia

FAAA, FRENCH POLYNESIA


Home > Oceania > French Polynesia
Elevation: 7 feet     Latitude: 17 33S     Longitude: 149 37W

WEATHER
 
SELECT A DAY
Number of Records: 208,679;   Date Range: 6/30/96 - 8/10/14
 
SHARE

PRINT THIS DATA

[ ← Previous Day ]
WEATHER ALMANAC - JANUARY 29, 2013
[ Next Day → ]
[ °C ]   °F
Weather ElementAverageHighLow
Temperature81.7 °F87.8 °F (11:00 am)76 °F (5:00 am)
Dewpoint72.6 °F77 °F (1:30 pm)69.8 °F (1:00 am)
Humidity73.1 %83 % (3:30 am)52 % (8:00 am)
Barometer29.90 in29.95 in (8:30 am)29.86 in (2:00 am)
Wind Speed4.7 mph15.7 mph (2:00 pm)
Weather ElementAverage
Visibility7.6 mi
Wind DirectionNE (46.5 °)

Weather ElementTotal
Precipitation---
Cooling Degree Days16.9 (Base 65)
Growing Degree Days31.9 (Base 50)
Averaged from 54 records on January 29, 2013
WEATHER CONDITIONS BREAKOUT
WIND DIRECTION BREAKOUT
WEATHER BY HOUR - JANUARY 29, 2013
[ °C ]   °F
Local TimeTemperatureDewpointHumidityBarometerVisibilityWind DirectionWind SpeedGust SpeedPrecipitationEventsConditions
12:30 AM78.8 °F71.6 °F78 %29.89 in6.2 miVariable3.5 mphMostly Cloudy
1:00 AM78.8 °F69.8 °F74 %29.89 in6.2 miENE (60°)4.6 mphMostly Cloudy
1:30 AM78.8 °F69.8 °F74 %29.89 in6.2 miVariable2.3 mphScattered Clouds
2:00 AM78.0 °F70.0 °F71 %29.88 in12.0 miSSE (150°)2.2 mphScattered Clouds
2:00 AM77.0 °F69.8 °F78 %29.86 in6.2 miVariable1.2 mphMostly Cloudy
2:30 AM77.0 °F69.8 °F78 %29.86 in6.2 miCalmMostly Cloudy
3:00 AM77.0 °F69.8 °F78 %29.86 in6.2 miEast (100°)3.5 mphMostly Cloudy
3:30 AM77.0 °F71.6 °F83 %29.86 in6.2 miVariable2.3 mph
4:00 AM77.0 °F71.6 °F83 %29.86 in6.2 miCalm
4:30 AM77.0 °F69.8 °F78 %29.86 in6.2 miCalm
5:00 AM76.0 °F71.0 °F78 %29.88 in25.0 miSSE (150°)2.3 mphClear
5:00 AM77.0 °F69.8 °F78 %29.86 in6.2 miVariable2.3 mph
5:30 AM77.0 °F69.8 °F78 %29.89 in6.2 miVariable2.3 mph
6:00 AM77.0 °F69.8 °F78 %29.89 in6.2 miVariable1.2 mphScattered Clouds
6:30 AM77.0 °F69.8 °F78 %29.89 in6.2 miVariable2.3 mphScattered Clouds
7:00 AM80.6 °F71.6 °F74 %29.92 in6.2 miVariable1.2 mphScattered Clouds
7:30 AM82.4 °F69.8 °F66 %29.92 in6.2 miNE (50°)3.5 mphScattered Clouds
8:00 AM85.0 °F70.0 °F52 %29.94 in19.0 miENE (70°)4.6 mphPartly Cloudy
8:00 AM84.2 °F69.8 °F62 %29.92 in6.2 miENE (70°)4.6 mphScattered Clouds
8:30 AM86.0 °F71.6 °F62 %29.95 in6.2 miNE (40°)3.5 mphScattered Clouds
9:00 AM86.0 °F75.2 °F70 %29.95 in6.2 miNE (50°)10.4 mphScattered Clouds
9:30 AM86.0 °F75.2 °F70 %29.92 in6.2 miNE (50°)10.4 mphScattered Clouds
10:00 AM86.0 °F75.2 °F70 %29.92 in6.2 miNE (50°)10.4 mphPartly Cloudy
10:30 AM86.0 °F75.2 °F70 %29.95 in6.2 miNE (50°)8.1 mphPartly Cloudy
11:00 AM87.0 °F76.0 °F62 %29.94 in19.0 miNE (50°)8.1 mphPartly Cloudy
11:00 AM87.8 °F75.2 °F66 %29.92 in6.2 miNE (50°)8.1 mphPartly Cloudy
11:30 AM87.8 °F75.2 °F66 %29.92 in6.2 miNE (50°)10.4 mphPartly Cloudy
12:00 PM87.8 °F75.2 °F66 %29.92 in6.2 miNE (50°)10.4 mphPartly Cloudy
12:30 PM87.8 °F75.2 °F66 %29.92 in6.2 miNE (40°)11.5 mphPartly Cloudy
1:30 PM87.8 °F77.0 °F70 %29.89 in6.2 miNE (40°)10.4 mphScattered Clouds
2:00 PM85.0 °F74.0 °F62 %29.90 in9.0 miENE (60°)15.7 mphPartly Cloudy
2:00 PM86.0 °F73.4 °F66 %29.89 in6.2 miENE (60°)8.1 mphScattered Clouds
2:30 PM84.2 °F73.4 °F70 %29.89 in6.2 miENE (60°)5.8 mphRainLight Rain Showers
3:00 PM82.4 °F75.2 °F79 %29.86 in6.2 miSE (140°)4.6 mphRainLight Rain Showers
3:30 PM84.2 °F75.2 °F74 %29.86 in6.2 miVariable2.3 mphPartly Cloudy
4:00 PM84.2 °F75.2 °F74 %29.86 in6.2 miVariable2.3 mphPartly Cloudy
4:30 PM86.0 °F75.2 °F70 %29.86 in6.2 miNE (40°)8.1 mphPartly Cloudy
5:00 PM85.0 °F74.0 °F62 %29.88 in16.0 miNE (40°)9.2 mphPartly Cloudy
5:00 PM86.0 °F73.4 °F66 %29.86 in6.2 miNE (40°)9.2 mphPartly Cloudy
5:30 PM84.2 °F73.4 °F70 %29.89 in6.2 miNE (50°)5.8 mphScattered Clouds
6:00 PM82.4 °F71.6 °F70 %29.89 in6.2 miSouth (180°)4.6 mphScattered Clouds
6:30 PM80.6 °F73.4 °F79 %29.89 in6.2 miSouth (170°)6.9 mphMostly Cloudy
7:00 PM80.6 °F73.4 °F79 %29.92 in6.2 miSouth (180°)5.8 mphScattered Clouds
7:30 PM80.6 °F73.4 °F79 %29.92 in6.2 miCalmScattered Clouds
8:00 PM80.0 °F73.0 °F73 %29.93 in12.0 miEast (90°)2.3 mphPartly Cloudy
8:00 PM80.6 °F73.4 °F79 %29.92 in6.2 miEast (90°)2.3 mphPartly Cloudy
8:30 PM78.8 °F73.4 °F83 %29.92 in6.2 miCalmPartly Cloudy
9:00 PM78.8 °F73.4 °F83 %29.95 in6.2 miCalmPartly Cloudy
9:30 PM78.8 °F71.6 °F78 %29.95 in6.2 miCalmPartly Cloudy
10:00 PM78.8 °F71.6 °F78 %29.95 in6.2 miCalmScattered Clouds
10:30 PM78.8 °F73.4 °F83 %29.95 in6.2 miCalmScattered Clouds
11:00 PM78.0 °F72.0 °F78 %29.94 in12.0 miENE (70°)6.7 mphScattered Clouds
11:00 PM78.8 °F71.6 °F78 %29.92 in6.2 miENE (70°)3.5 mphScattered Clouds
11:30 PM78.8 °F71.6 °F78 %29.92 in6.2 miVariable2.3 mphScattered Clouds
Hourly data recorded from NTAA, located miles away from Faaa, French Polynesia







STORIES FROM OUR PARTNERS